Regional Weather Roundup
Issued by NWS

Home | Current Version | Previous Version | Text Only | Print | Product List | Glossary On
Versions: 1 2 3 4 5 6 7 8 9 10 11 12 13 14 15 16 17 18 19 20 21 22 23 24 25 26 27 28 29 30 31 32 33 34 35 36 37 38 39 40 41 42 43 44 45 46 47 48 49 50
000
ASUS45 KTFX 180610
RWRMT
MONTANA REGIONAL WEATHER ROUNDUP
NATIONAL WEATHER SERVICE GREAT FALLS MT
1200 AM MDT WED OCT 18 2017

NOTE: "FAIR" INDICATES FEW OR NO CLOUDS BELOW 12000 FEET WITH NO
SIGNIFICANT WEATHER AND/OR OBSTRUCTIONS TO VISIBILITY.

MTZ001>007-043-180700-
WEST OF THE DIVIDE

CITY           SKY/WX    TMP DP  RH WIND       PRES   REMARKS
KALISPELL      MOCLDY    46  24  42 VRB5      29.97R
MISSOULA       MOCLDY    55  37  50 SW10      30.01S
BUTTE          CLOUDY    53  22  29 W12G23    30.05R
MULLAN PASS    MOCLDY    35  16  45 SW12G21   30.03S WCI  27
DEER LODGE       N/A     57  25  28 CALM      30.02R
HAMILTON         N/A     61  28  29 SE5G21    30.03R
LIBBY            N/A     52  14  22 S5        29.99R
$$

MTZ008-052>055-180700-
SOUTHWEST MONTANA

CITY           SKY/WX    TMP DP  RH WIND       PRES   REMARKS
BOZEMAN        CLEAR     50  22  33 W7        29.96R
DILLON         CLEAR     48  19  31 SE12      30.05R
W YELLOWSTONE  CLOUDY    46  21  36 S9G15     30.13F
ENNIS          CLEAR     48  21  34 S13G21    30.08S
$$

MTZ009-010-012-014-046-048-049-054-180700-
EAST SLOPES AND CENTRAL MONTANA

CITY           SKY/WX    TMP DP  RH WIND       PRES   REMARKS
CUT BANK       CLOUDY    43  21  41 N12       29.85R
GREAT FALLS    CLOUDY    57  28  33 W24G38    29.84R
MALMSTROM AFB  CLOUDY    59  28  30 W20G32    29.83R
HELENA         CLOUDY    61  26  26 W17G36    29.89S
$$

MTZ011-013-016-021-045-047-050-051-180700-
NORTH CENTRAL MONTANA

CITY           SKY/WX    TMP DP  RH WIND       PRES   REMARKS
HAVRE          CLOUDY    45  34  65 NW20G29   29.81R
LEWISTOWN      CLOUDY    58  24  27 W13G25    29.84R
N BAR RANCH      N/A     59  19  21 W29G43    29.80R
CHINOOK          N/A     48  34  57 NW20G26   29.81R
$$

MTZ017>020-022>027-061-062-180700-
NORTHEAST MONTANA

CITY           SKY/WX    TMP DP  RH WIND       PRES   REMARKS
GLASGOW        PTCLDY    55  35  47 NW37G51   29.69R
JORDAN           N/A     58  26  29 NW14      29.69R
SIDNEY         MOCLDY    66  25  21 W25G33    29.58R
WOLF POINT     PTCLDY    67  26  21 NW37G53   29.62R
PLENTYWOOD       N/A     61  34  36 W41G62    29.52R
POPLAR           N/A     66  27  22 W20G25    29.57R
$$

MTZ028>42-056>058-180700-
SOUTHCENTRAL AND SOUTHEAST MONTANA

CITY           SKY/WX    TMP DP  RH WIND       PRES   REMARKS
BAKER          CLOUDY    66  19  16 SW20G28   29.68R
BILLINGS       CLOUDY    65  18  16 W16       29.75R
LIVINGSTON     CLEAR     60  19  20 SW20      29.90R
MILES CITY     CLOUDY    60  25  26 SW13      29.69R
FORSYTH          N/A     68  19  15 SW3       29.70R
$$

REGIONAL REPORTS...DAKOTAS

CITY           SKY/WX    TMP DP  RH WIND       PRES   REMARKS
WILLISTON      PTCLDY    63  25  23 SW14G23   29.54R
MINOT          CLOUDY    64  26  23 S12G20    29.48S
DICKINSON      MOCLDY    58  25  28 S15       29.60F
BEACH            N/A     63  18  17 SW18G26   29.67R
CROSBY           N/A     59  25  27 W23G31    29.48R
TIOGA            N/A     61  23  23 SW24G30   29.52R
WATFORD CITY     N/A     63  25  23 SW16G23   29.55R
BISMARCK       MOCLDY    60  26  27 S7        29.61F
GRAND FORKS    CLOUDY    51  37  58 S10       29.56F
FARGO          CLOUDY    56  42  59 S13       29.65F
BUFFALO SD       N/A     56  26  31 W16       29.64F
RAPID CITY     CLOUDY    50  25  37 S7        29.78F
$$

REGIONAL REPORTS...WYOMING/IDAHO/WASHINGTON

CITY           SKY/WX    TMP DP  RH WIND       PRES   REMARKS
GILLETTE         N/A     64  19  17 SW23G35   29.81F
SHERIDAN       CLOUDY    62  21  20 VRB5      29.80R
BUFFALO WY     CLOUDY    66  11  11 SW22G30   29.85F
CODY           CLOUDY    63  12  13 SE14G37   29.92F
IDAHO FALLS    CLEAR     45  28  51 SW12      30.12R
SALMON         CLEAR     35  27  72 N5        30.06S
BOISE          CLEAR     44  31  60 S3        30.12S
SPOKANE        CLOUDY    47  24  40 SW6       30.05S
$$

REGIONAL REPORTS...ALBERTA

CITY           SKY/WX    TMP DP  RH WIND       PRES   REMARKS
EDMONTON       PTCLDY    37  28  70 W21G35    29.61R WCI  27
CALGARY        CLEAR     34  30  86 VRB2      29.76R
LETHBRIDGE     CLEAR     46  16  29 W28G38    29.81R
MEDICINE HAT     N/A     41  34  75 MISG      29.79R
$$

REGIONAL REPORTS...SASKATCHEWAN

CITY           SKY/WX    TMP DP  RH WIND       PRES   REMARKS
SWIFT CURRENT  CLEAR     39  36  87 W28G38    29.56S WCI  28
REGINA         PTCLDY    50  37  62 W39G56    29.42R
SASKATOON      LGT RAIN  46  39  76 W36G53    29.27R
$$



USA.gov is the U.S. government's official web portal to all federal, state and local government web resources and services.